Location: *
(50.2671°S, 177.6760°W)
Time: 04:59:04
(UTC+00:00)

Daily predictions for brighter satellites

Satellite Brightness Start Highest point End
(mag) Time Altitude Azimuth Time Altitude Azimuth Time Altitude Azimuth
Cosmos 1818 3.8 04:35:00 10° SW 04:40:14 48° SE 04:45:27 10° ENE
Cosmos 1833 Rocket 4.5 04:37:47 10° S 04:40:35 14° SSE 04:43:22 10° SE
GEOS 3 Rocket 4.5 04:36:47 10° E 04:41:15 31° SSE 04:45:47 10° SSW
Cosmos 1437 Rocket 2.6 04:37:52 10° N 04:41:33 75° E 04:45:18 10° SSE
Iridium 4 Rocket 4.0 04:36:06 10° S 04:42:04 88° W 04:47:58 10° N
Helios 1A 3.7 04:39:21 10° NE 04:43:02 32° ESE 04:46:47 10° S
Meteor 2-19 Rocket 4.5 04:38:52 10° S 04:45:05 68° ESE 04:51:10 10° NNE
Cosmos 1238 Rocket 3.3 04:42:40 10° S 04:46:22 42° ESE 04:50:37 10° NNE
ARIANE 5 R/B 2.9 04:41:52 10° SSE 04:46:56 46° E 04:51:59 10° N
SL-16 R/B 3.5 04:43:07 10° SW 04:48:34 47° WNW 04:53:57 10° N
Cosmos 494 Rocket 4.2 04:44:20 10° SSW 04:49:28 49° ESE 04:54:30 10° NE
Cosmos 1934 Rocket 4.0 04:44:53 10° N 04:51:07 84° E 04:57:20 10° S
Cosmos 1782 3.9 04:48:12 10° SSE 04:51:16 21° ESE 04:54:17 10° ENE
Cosmos 1603 3.9 04:46:12 10° SSW 04:51:44 50° SE 04:57:12 10° NE
NOSS 3-3 (C) 3.9 04:50:38 10° SW 04:57:24 69° SE 05:03:01 10° NE
Cosmos 2263 Rocket 2.2 04:53:17 10° NNW 04:58:58 87° ENE 05:04:45 10° SSE
COSMO-SKYMED 1 2.7 04:56:07 10° NNE 05:00:31 86° WNW 05:04:59 10° SSW
H-2A R/B 2.7 04:56:25 10° S 05:01:18 55° WSW 05:06:09 10° NW
Cosmos 1626 Rocket 4.4 04:59:38 10° NNE 05:03:24 29° E 05:07:13 10° SSE
SL-4 R/B 1.4 05:00:25 10° WSW 05:03:53 86° SSE 05:07:09 11° ENE
Cosmos 2082 3.8 04:58:20 10° NNW 05:04:03 90° W 05:09:53 10° SSE
BREEZE-M DEB (TANK) 3.2 05:02:57 10° WNW 05:05:06 31° N 05:08:20 10° ENE
FengYun 1-2 T 4.3 05:00:43 10° SSE 05:06:29 73° ENE 05:12:08 10° N
Cosmos 372 Rocket 4.3 05:02:49 10° NNW 05:07:55 68° WSW 05:13:05 10° SSE
SMAP 4.4 05:06:57 12° SE 05:09:48 19° E 05:13:08 10° NE
CZ-2D R/B 3.7 05:07:35 10° SSE 05:11:27 44° E 05:15:20 10° N
Cosmos 921 Rocket 3.0 05:07:17 10° SSW 05:11:38 65° ESE 05:16:00 10° NNE
Cosmos 2219 3.9 05:10:16 10° NW 05:15:54 55° SW 05:21:38 10° SSE
Cosmos 1048 Rocket 4.1 05:12:11 10° SSW 05:17:35 61° ESE 05:22:51 10° NE
Cosmos 2227 Rocket 3.6 05:13:12 10° WNW 05:18:22 35° SW 05:23:35 10° SSE
Cosmos 2227 4.4 05:14:38 10° N 05:20:09 52° ENE 05:25:13 12° SE
Cosmos 1943 3.5 05:16:08 10° SSW 05:21:53 75° WNW 05:27:36 10° NNE
Cosmos 1844 Rocket 3.3 05:21:16 10° N 05:26:19 35° ENE 05:29:58 17° SE
Cosmos 2058 Rocket 3.5 05:22:50 10° SSW 05:27:15 66° W 05:31:37 10° N
Cosmos 1939 Rocket 4.4 05:24:52 10° S 05:28:22 33° WSW 05:31:49 10° NW
Cosmos 2346 Rocket 4.5 05:23:30 10° S 05:29:49 71° ESE 05:36:06 10° NNE
IRS-1C 4.3 05:25:53 10° SSE 05:31:19 78° WSW 05:36:41 10° NNW
SJ-11-01 4.2 05:27:08 10° SSE 05:31:55 73° ENE 05:36:38 10° N
CZ-4C R/B 3.6 05:26:05 10° WNW 05:33:50 46° SSW 05:39:25 14° SE
USA 267 3.4 05:28:51 16° E 05:34:14 61° SSE 05:40:45 10° WSW
Cosmos 1812 3.9 05:31:30 10° SSW 05:35:01 43° W 05:38:28 10° NNW
Cosmos 1459 Rocket 4.4 05:29:22 10° NNE 05:35:14 41° E 05:41:05 10° SSE
NOSS 3-2 (C) 4.3 05:27:02 10° NNW 05:35:43 57° ENE 05:41:38 18° SE
SJ-6F 4.4 05:31:45 10° SSE 05:35:52 63° E 05:39:55 10° N
Cosmos 2084 Rocket 3.5 05:34:15 10° NW 05:38:31 80° SW 05:41:22 22° SE
Cosmos 1605 Rocket 4.2 05:33:34 10° NNW 05:39:46 74° WSW 05:46:09 10° S
NOSS 3-2 (A) 4.2 05:32:31 10° NW 05:41:28 88° SW 05:47:47 17° SE
Cosmos 2297 Rocket 4.3 05:37:54 10° WSW 05:41:52 19° SW 05:45:51 10° S
H-2A R/B 4.4 05:40:34 10° S 05:43:32 28° WSW 05:46:28 10° NW
Cosmos 1844 4.1 05:38:28 10° N 05:43:42 40° ENE 05:46:33 24° SE
Cosmos 1515 3.5 05:40:17 10° S 05:43:50 54° ESE 05:47:20 10° NNE
Okean 1-7 Rocket 3.8 05:39:47 10° NNE 05:44:01 46° E 05:47:18 16° SSE
Cosmos 1862 4.1 05:40:45 10° NNE 05:43:56 29° E 05:43:56 29° E
ARGOS 3.9 05:39:03 10° S 05:44:25 55° WSW 05:49:42 10° NW
CZ-2D R/B 3.0 05:41:49 14° SSE 05:44:59 72° E 05:48:40 10° N
PSLV R/B 3.6 05:41:54 14° SSE 05:45:36 55° E 05:49:47 10° N
Cosmos 1809 Rocket 4.5 05:39:39 10° S 05:45:58 88° ESE 05:52:14 10° N
Cosmos 1812 Rocket 3.6 05:43:20 10° S 05:47:53 60° ESE 05:52:20 10° NNE
Cosmos 1802 Rocket 4.4 05:42:32 10° NNE 05:48:17 40° E 05:54:02 10° SSE
CENTAUR R/B 3.1 05:42:18 10° WNW 05:50:17 65° SW 05:55:21 18° SE
Cosmos-2242 3.0 05:46:25 10° S 05:50:45 86° W 05:54:59 10° N
Cosmos 2016 Rocket 4.5 05:46:03 10° NNE 05:51:45 37° E 05:57:28 10° SSE
IRS-P3 4.5 05:46:44 10° S 05:52:07 67° WSW 05:57:26 10° NNW
USA 184 4.4 05:30:20 10° N 05:52:34 34° NE 05:56:45 24° E
Cosmos 1461 3.6 05:49:14 10° N 05:52:57 32° ENE 05:53:19 32° ENE
SJ-12 4.3 05:49:46 10° S 05:53:50 64° WSW 05:57:51 10° NNW
Meteor 2-3 Rocket 3.7 05:48:21 10° N 05:53:57 62° E 05:59:34 10° SSE
SL-08 R/B 3.8 05:49:55 10° N 05:54:36 62° WNW 05:59:17 10° SSW
Cosmos 1607 3.9 05:48:48 10° SW 05:54:55 63° SE 05:59:41 18° ENE
ATLAS CENTAUR R/B 3.7 05:53:17 10° SSW 05:55:03 12° S 05:56:23 11° S
Spot 4 Rocket 4.0 05:52:11 10° SSE 05:57:26 73° ENE 06:02:36 10° N
Meteor 2-2 Rocket 4.4 05:51:39 10° SSW 05:57:39 85° W 06:03:41 10° N
BlueWalker 3 1.9 05:55:46 10° WNW 05:59:39 74° NNE 06:00:34 49° E
Cosmos 1602 Rocket 3.5 05:56:28 10° N 06:00:49 64° E 06:03:36 22° SSE
Tsikada Rocket 4.4 05:55:02 10° S 06:00:53 39° ESE 06:06:38 10° NE
Cosmos 2058 4.1 05:57:23 10° NNW 06:01:22 42° WSW 06:05:23 10° S
Cosmos 1378 3.8 05:58:22 10° S 06:06:42 - NNE 06:00:25 32° S
Cosmos 1544 3.0 06:00:37 10° NNW 06:03:22 54° WSW 06:04:09 37° SSW
CORIOLIS 4.2 06:04:07 16° SSE 06:08:25 58° ENE 06:13:47 10° N
Cosmos 1758 Rocket 3.4 06:05:09 10° N 06:09:30 88° E 06:12:46 18° S
GEOS 3 Rocket 3.5 06:15:26 22° NE 06:18:52 88° NW 06:24:06 10° SW
Cosmos 2233 Rocket 4.3 06:14:13 10° NNE 06:19:46 39° E 06:19:46 39° E
Cosmos 2061 Rocket 4.2 06:14:55 10° NNE 06:20:46 44° E 06:22:23 37° SE
Meteor 2-16 Rocket 4.3 06:15:26 10° S 06:21:40 80° E 06:27:49 10° NNE
Cosmos 2221 3.3 06:19:34 10° S 06:22:20 36° SSE 06:22:20 36° SSE
Cosmos 2150 Rocket 4.4 06:19:55 10° N 06:24:49 45° ENE 06:24:49 45° ENE
ARIANE 5 R/B 4.2 06:21:14 10° S 06:25:50 32° WSW 06:30:25 10° WNW
Cosmos 1833 Rocket 3.2 06:20:48 10° SSW 06:25:51 40° SE 06:25:51 40° SE
Cosmos 1782 4.2 06:23:29 10° SSW 06:27:07 37° W 06:30:41 10° NNW
Cosmos 614 Rocket 3.9 06:24:11 10° SSW 06:29:15 58° ESE 06:29:15 58° ESE
Cosmos 1271 Rocket 4.1 06:32:47 10° N 06:34:42 28° N 06:34:42 28° N
Cosmos 2082 Rocket 3.9 06:32:41 10° SSW 06:35:19 19° SSE 06:35:19 19° SSE
USA 238 DEB 3.9 06:29:56 10° NNW 06:37:49 71° NE 06:40:26 44° ESE
USA 238 3.9 06:30:01 10° NNW 06:37:53 71° NE 06:40:28 44° ESE
SME Rocket 4.2 06:34:20 10° S 06:39:40 47° WSW 06:43:38 10° NW
Cosmos 724 4.3 06:34:37 10° SW 06:40:55 88° SE 06:43:05 44° NE
USA 215 3.3 06:39:47 49° E 06:41:12 59° NE 06:47:41 10° NW
Meteor 2-8 Rocket 4.3 06:35:35 10° N 06:41:40 80° E 06:46:59 14° SSE
SL-4 R/B 3.3 06:39:20 10° W 06:41:57 29° NW 06:41:57 29° NW
Cosmos 2263 Rocket 4.1 06:39:05 10° W 06:43:39 24° SW 06:47:30 13° S
SMAP 3.5 06:45:25 31° S 06:47:34 62° WSW 06:52:12 10° NNW
Cosmos 2173 Rocket 4.5 06:45:50 10° NNW 06:51:54 59° WSW 06:58:07 10° S
BREEZE-M R/B 4.4 06:48:10 10° NW 06:52:11 45° NNE 06:52:11 45° NNE
Cosmos 2298 Rocket 4.2 06:49:03 10° NNW 06:53:33 63° N 06:53:33 63° N
SL-08 R/B 4.5 06:56:09 10° N 07:02:26 86° W 07:08:56 10° S
Cosmos 1125 Rocket 4.0 06:59:23 10° NW 07:04:35 57° WSW 07:05:36 48° SSW
Cosmos 1867 4.0 07:01:21 10° NNW 07:05:28 53° NNW 07:05:28 53° NNW
Meteor 2-6 Rocket 4.4 07:00:50 10° SSW 07:06:53 76° W 07:10:05 29° N
Cosmos 1844 Rocket 3.5 07:04:35 10° NW 07:10:04 48° SW 07:11:38 38° S
Cosmos 1725 Rocket 4.2 07:04:22 10° NNW 07:10:42 68° WSW 07:17:02 10° S
USA 267 3.3 07:16:12 62° NNE 07:17:11 71° NW 07:23:50 10° WSW
CZ-4C R/B 3.9 07:17:54 10° WSW 07:23:51 26° S 07:24:30 26° S
Timation 2 Rocket 4.1 07:20:28 10° NW 07:26:25 71° WSW 07:26:25 71° WSW
NOSS 3-2 (C) 4.5 07:18:27 10° WNW 07:26:58 56° SW 07:29:04 44° S
CENTAUR R/B 3.9 07:35:45 10° WSW 07:41:58 29° SSW 07:42:29 29° S
USA 215 4.5 08:27:08 36° W 08:27:08 36° W 08:30:51 10° WNW
